Regional Weather Roundup
Issued by NWS

Home | Current Version | Previous Version | Graphics & Text | Print | Product List | Glossary On
Versions: 1 2 3 4 5 6 7 8 9 10 11 12 13 14 15 16 17 18 19 20 21 22 23 24 25 26 27 28 29 30 31 32 33 34 35 36 37 38 39 40 41 42 43 44 45 46 47 48 49 50
000
ASUS43 KLMK 220810
RWRKY
KENTUCKY REGIONAL WEATHER ROUNDUP
NATIONAL WEATHER SERVICE LOUISVILLE KY
300 AM EST MON DEC 22 2014

NOTE "FAIR" INDICATES FEW OR NO CLOUDS BELOW 12,000 FEET
WITH NO SIGNIFICANT WEATHER AND/OR OBSTRUCTIONS TO VISIBILITY.

KYZ001>023-026-027-061>063-070>075-220900-
WESTERN AND SOUTH CENTRAL KENTUCKY

CITY           SKY/WX    TMP DP  RH WIND       PRES   REMARKS
PADUCAH        CLOUDY    41  33  73 SE5       29.93F
HENDERSON      CLOUDY    36  28  75 E3        29.97S
OWENSBORO      CLOUDY    37  31  79 SE6       29.98F WCI  32
HOPKINSVILLE   CLOUDY    40  34  77 SE6       29.96S
BOWLING GREEN  MOCLDY    32  26  78 CALM      30.00S
GLASGOW        PTCLDY    33  29  86 CALM      30.00R
$$

KYZ024-025-028>034-038-045-046-053-220900-
NORTH CENTRAL KENTUCKY

CITY           SKY/WX    TMP DP  RH WIND       PRES   REMARKS
LOUISVILLE/SDF CLOUDY    36  29  75 CALM      30.02F
LOUISVILLE/LOU CLOUDY    36  28  73 CALM      30.03S
FORT KNOX      CLOUDY    33  28  81 NE5       30.00R WCI  29
$$

KYZ035>037-039>044-047>052-055>060-089>105-220900-
NORTHEAST KENTUCKY

CITY           SKY/WX    TMP DP  RH WIND       PRES   REMARKS
LEXINGTON      CLOUDY    37  28  70 SE9       30.03S WCI  30
COVINGTON      CLOUDY    31  24  75 E8        30.04F WCI  23
FRANKFORT      CLOUDY    33  27  78 E3        30.03S
$$

KYZ054-064>069-076>088-106>120-220900-
SOUTHEAST KENTUCKY

CITY           SKY/WX    TMP DP  RH WIND       PRES   REMARKS
JACKSON        CLEAR     37  26  64 SE6       30.04F WCI  32
LONDON         MOCLDY    36  28  73 CALM      30.02S
SOMERSET       CLOUDY    36  30  80 N5        30.04F WCI  32
MIDDLESBORO    CLOUDY    40  37  86 CALM      30.07S
MONTICELLO     CLOUDY    40  36  86 CALM      30.04F
$$




USA.gov is the U.S. government's official web portal to all federal, state and local government web resources and services.